Regional Weather Roundup
Issued by NWS

Home | Current Version | Previous Version | Text Only | Print | Product List | Glossary Off
Versions: 1 2 3 4 5 6 7 8 9 10 11 12 13 14 15 16 17 18 19 20 21 22 23 24 25 26 27 28 29 30 31 32 33 34 35 36 37 38 39 40 41 42 43 44 45 46 47 48 49 50

000
ASUS43 KOAX 181910
RWRNE

WEATHER ROUNDUP FOR NEBRASKA
NATIONAL WEATHER SERVICE OMAHA NE
200 PM CDT MON SEP 18 2017

NOTES: SATELLITE DATA IS BEING USED TO AUGMENT CLOUD COVER ABOVE
       12000 FEET.
       "FAIR" INDICATES FEW OR NO CLOUDS BELOW 12,000 FEET WITH NO
       SIGNIFICANT WEATHER AND/OR OBSTRUCTIONS TO VISIBILITY.


NEZ001>004-019>022-054>056-182000-
NEBRASKA PANHANDLE

CITY           SKY/WX    TMP DP  RH WIND       PRES   REMARKS
SCOTTSBLUFF    SUNNY     78  47  33 CALM      29.93F
ALLIANCE       SUNNY     80  35  19 SW13G22   29.92F
CHADRON        SUNNY     81  28  14 W12       29.86F
GORDON         FAIR      77  36  22 W8        29.89F
KIMBALL        SUNNY     78  36  22 W13G22    30.00F
SIDNEY         MOSUNNY   84  36  18 W14G20    29.97F
$$

NEZ057>060-069>072-079>082-182000-
SOUTHWEST NEBRASKA

CITY           SKY/WX    TMP DP  RH WIND       PRES   REMARKS
NORTH PLATTE   SUNNY     74  58  57 VRB3      29.92F
IMPERIAL       SUNNY     80  46  30 W5        29.93F
LEXINGTON      CLOUDY    70  60  69 S3        29.94F
MCCOOK         SUNNY     73  59  61 SW6       29.93F
OGALLALA       SUNNY     81  45  27 W3        29.93F
$$

NEZ005>010-023>029-035>040-094-182000-
NORTH CENTRAL NEBRASKA

CITY           SKY/WX    TMP DP  RH WIND       PRES   REMARKS
VALENTINE      SUNNY     79  54  41 VRB7      29.86F
AINSWORTH      SUNNY     75  60  59 S9        29.88F
BROKEN BOW     PTSUNNY   69  60  73 SW8       29.92F
O`NEILL        MOSUNNY   72  63  71 S13G18    29.90F
ORD            CLOUDY    68  59  73 S9        29.92F
THEDFORD       SUNNY     79  57  47 SW10      29.90F
$$

NEZ041-046>049-061>064-073>077-083>087-182000-
SOUTH CENTRAL NEBRASKA

CITY           SKY/WX    TMP DP  RH WIND       PRES   REMARKS
GRAND ISLAND   CLOUDY    72  66  81 S8        29.94S
AURORA         CLOUDY    71  67  88 S3        29.94F
HASTINGS       CLOUDY    72  64  76 CALM      29.94F
HEBRON         CLOUDY    75  66  74 S6        29.93F
HOLDREGE       CLOUDY    73  58  59 W5        29.93F
KEARNEY        CLOUDY    71  63  75 VRB6      29.94F
YORK           CLOUDY    70  68  94 S3        29.95S
$$

NEZ011>018-030>034-042>045-182000-
NORTHEAST NEBRASKA

CITY           SKY/WX    TMP DP  RH WIND       PRES   REMARKS
NORFOLK        CLOUDY    71  65  81 SW7       29.92F
ALBION         CLOUDY    72  65  78 SW5       29.92F
BLAIR          CLOUDY    69  66  89 S13       29.95F
COLUMBUS       CLOUDY    68  66  93 SE7       29.94F
FREMONT        CLOUDY    71  66  86 S7        29.94F
TEKAMAH        CLOUDY    72  65  78 S8        29.93F
WAYNE          CLOUDY    70  67  91 S10       29.93F
$$

NEZ050>053-065>068-078-088>093-182000-
SOUTHEAST NEBRASKA

CITY           SKY/WX    TMP DP  RH WIND       PRES   REMARKS
LINCOLN        CLOUDY    70  67  90 S7        29.95F
OMAHA EPPLEY   CLOUDY    70  65  84 S8        29.95F
BEATRICE       CLOUDY    73  67  84 S8        29.95F
FALLS CITY     CLOUDY    70  67  90 S9        29.96F
NEBRASKA CITY  RAIN      68  68 100 S6        29.97S
PLATTSMOUTH    LGT RAIN  68  67  96 S7        29.96S
$$

NEZ044-045-051>053-067-182000-
OMAHA AREA

CITY           SKY/WX    TMP DP  RH WIND       PRES   REMARKS
OMAHA EPPLEY   CLOUDY    70  65  84 S8        29.95F
BLAIR          CLOUDY    69  66  89 S13       29.95F
FREMONT        CLOUDY    71  66  86 S7        29.94F
MILLARD        CLOUDY    70  67  90 SE8       29.95F
PLATTSMOUTH    LGT RAIN  68  67  96 S7        29.96S
WAHOO          CLOUDY    70  67  89 S12       29.95S
$$




USA.gov is the U.S. government's official web portal to all federal, state and local government web resources and services.